FLOCK 1C-6

Last updated on Wed Feb 14 2018 16:18:45 GMT+0000 (Coordinated Universal Time)

1 40036U 14033AC 18045.30046988 -.00000206 00000-0 -15742-4 0 9993 2 40036 97.9258 323.4537 0010681 214.4171 145.6341 14.89366777198558
UTC large
Height (km)
Speed (km/s)
/
Latitude / Longitude
Inclination (degrees)
Orbital Period (minutes)
Azimuth
Elevation
Range (km)
Doppler Factor

Next 0 passes for location: London (51.5072 / 0.1276)

Sorry there are no passes over London.